Time,TemperatureF,DewpointF,PressureIn,WindDirection,WindDirectionDegrees,WindSpeedMPH,WindSpeedGustMPH,Humidity,HourlyPrecipIn,Conditions,Clouds,dailyrainin,SolarRadiationWatts/m^2,SoftwareType,DateUTC
2013-04-03 00:02:00,65.0,62.0,-100.00,NNE,27,4.0,8.0,91,0.00,,,0.00,0.000000,,2013-04-03 05:02:00,
2013-04-03 00:33:00,64.0,63.0,-100.00,NNE,22,9.0,19.0,95,0.03,,,0.03,0.000000,,2013-04-03 05:33:00,
2013-04-03 00:42:00,64.0,63.0,-100.00,NNE,22,9.0,19.0,95,0.03,,,0.03,0.000000,,2013-04-03 05:42:00,
2013-04-03 00:52:00,64.0,63.0,-100.00,NNE,22,9.0,19.0,95,0.03,,,0.03,0.000000,,2013-04-03 05:52:00,
2013-04-03 01:02:00,64.0,63.0,-100.00,NNE,22,9.0,19.0,95,0.03,,,0.03,0.000000,,2013-04-03 06:02:00,
2013-04-03 01:32:00,63.0,62.0,-100.00,NNE,31,13.0,24.0,97,0.12,,,0.15,0.000000,,2013-04-03 06:32:00,
2013-04-03 01:42:00,63.0,62.0,-100.00,NNE,31,13.0,24.0,97,0.12,,,0.15,0.000000,,2013-04-03 06:42:00,
2013-04-03 01:52:00,63.0,62.0,-100.00,NNE,31,13.0,24.0,97,0.12,,,0.15,0.000000,,2013-04-03 06:52:00,
2013-04-03 02:02:00,63.0,62.0,-100.00,NNE,31,13.0,24.0,97,0.12,,,0.15,0.000000,,2013-04-03 07:02:00,
2013-04-03 02:33:00,62.0,61.0,-100.00,North,11,7.0,19.0,97,0.56,,,-99.99,0.000000,,2013-04-03 07:33:00,
2013-04-03 02:42:00,62.0,61.0,-100.00,North,11,7.0,19.0,97,0.56,,,-99.99,0.000000,,2013-04-03 07:42:00,
2013-04-03 02:53:00,62.0,61.0,-100.00,North,11,7.0,19.0,97,0.56,,,-99.99,0.000000,,2013-04-03 07:53:00,
2013-04-03 03:03:00,62.0,61.0,-100.00,North,11,7.0,19.0,97,0.56,,,-99.99,0.000000,,2013-04-03 08:03:00,
2013-04-03 03:33:00,58.0,57.0,-100.00,ENE,69,19.0,35.0,97,0.16,,,0.87,0.000000,,2013-04-03 08:33:00,
2013-04-03 03:43:00,58.0,57.0,-100.00,ENE,69,19.0,35.0,97,0.16,,,0.87,0.000000,,2013-04-03 08:43:00,
2013-04-03 03:52:00,58.0,57.0,-100.00,ENE,69,19.0,35.0,97,0.16,,,0.87,0.000000,,2013-04-03 08:52:00,
2013-04-03 04:02:00,58.0,57.0,-100.00,ENE,69,19.0,35.0,97,0.16,,,0.87,0.000000,,2013-04-03 09:02:00,
2013-04-03 04:33:00,57.0,56.0,-100.00,North,351,7.0,33.0,97,0.01,,,0.88,0.000000,,2013-04-03 09:33:00,
2013-04-03 04:43:00,57.0,56.0,-100.00,North,351,7.0,33.0,97,0.01,,,0.88,0.000000,,2013-04-03 09:43:00,
2013-04-03 04:53:00,57.0,56.0,-100.00,North,351,7.0,33.0,97,0.01,,,0.88,0.000000,,2013-04-03 09:53:00,
2013-04-03 05:03:00,57.0,56.0,-100.00,North,351,7.0,33.0,97,0.01,,,0.88,0.000000,,2013-04-03 10:03:00,
2013-04-03 05:33:00,57.0,56.0,-100.00,WNW,293,5.0,11.0,97,0.00,,,0.88,0.000000,,2013-04-03 10:33:00,
2013-04-03 05:43:00,57.0,56.0,-100.00,WNW,293,5.0,11.0,97,0.00,,,0.88,0.000000,,2013-04-03 10:43:00,
2013-04-03 05:53:00,57.0,56.0,-100.00,WNW,293,5.0,11.0,97,0.00,,,0.88,0.000000,,2013-04-03 10:53:00,
2013-04-03 06:02:00,57.0,56.0,-100.00,WNW,293,5.0,11.0,97,0.00,,,0.88,0.000000,,2013-04-03 11:02:00,
2013-04-03 06:33:00,55.0,54.0,-100.00,NNW,338,7.0,11.0,96,0.00,,,0.88,0.000000,,2013-04-03 11:33:00,
2013-04-03 06:42:00,55.0,54.0,-100.00,NNW,338,7.0,11.0,96,0.00,,,0.88,0.000000,,2013-04-03 11:42:00,
2013-04-03 06:53:00,55.0,54.0,-100.00,NNW,338,7.0,11.0,96,0.00,,,0.88,0.000000,,2013-04-03 11:53:00,
2013-04-03 07:02:00,55.0,54.0,-100.00,NNW,338,7.0,11.0,96,0.00,,,0.88,0.000000,,2013-04-03 12:02:00,
2013-04-03 07:33:00,54.0,53.0,-100.00,NNE,31,6.0,12.0,96,0.00,,,-99.99,0.000000,,2013-04-03 12:33:00,
2013-04-03 07:42:00,54.0,53.0,-100.00,NNE,31,6.0,12.0,96,0.00,,,-99.99,0.000000,,2013-04-03 12:42:00,
2013-04-03 07:52:00,54.0,53.0,-100.00,NNE,31,6.0,12.0,96,0.00,,,-99.99,0.000000,,2013-04-03 12:52:00,
2013-04-03 08:02:00,54.0,53.0,-100.00,NNE,31,6.0,12.0,96,0.00,,,-99.99,0.000000,,2013-04-03 13:02:00,
2013-04-03 08:32:00,54.0,53.0,-100.00,NNE,23,9.0,14.0,97,0.00,,,0.88,5.000000,,2013-04-03 13:32:00,
2013-04-03 08:42:00,54.0,53.0,-100.00,NNE,23,9.0,14.0,97,0.00,,,0.88,5.000000,,2013-04-03 13:42:00,
2013-04-03 08:52:00,54.0,53.0,-100.00,NNE,23,9.0,14.0,97,0.00,,,0.88,5.000000,,2013-04-03 13:52:00,
2013-04-03 09:02:00,54.0,53.0,-100.00,NNE,23,9.0,14.0,97,0.00,,,0.88,5.000000,,2013-04-03 14:02:00,
2013-04-03 09:32:00,53.0,52.0,-100.00,North,356,7.0,15.0,97,0.00,,,0.88,22.000000,,2013-04-03 14:32:00,
2013-04-03 09:43:00,53.0,52.0,-100.00,North,356,7.0,15.0,97,0.00,,,0.88,22.000000,,2013-04-03 14:43:00,
2013-04-03 09:52:00,53.0,52.0,-100.00,North,356,7.0,15.0,97,0.00,,,0.88,22.000000,,2013-04-03 14:52:00,
2013-04-03 10:02:00,53.0,52.0,-100.00,North,356,7.0,15.0,97,0.00,,,0.88,22.000000,,2013-04-03 15:02:00,
2013-04-03 10:33:00,52.0,51.0,-100.00,NNW,345,8.0,18.0,96,0.02,,,0.90,49.000000,,2013-04-03 15:33:00,
2013-04-03 10:43:00,52.0,51.0,-100.00,NNW,345,8.0,18.0,96,0.02,,,0.90,49.000000,,2013-04-03 15:43:00,
2013-04-03 10:53:00,52.0,51.0,-100.00,NNW,345,8.0,18.0,96,0.02,,,0.90,49.000000,,2013-04-03 15:53:00,
2013-04-03 11:03:00,52.0,51.0,-100.00,NNW,345,8.0,18.0,96,0.02,,,0.90,49.000000,,2013-04-03 16:03:00,
2013-04-03 11:33:00,51.0,50.0,-100.00,North,5,9.0,21.0,96,0.01,,,0.91,102.000000,,2013-04-03 16:33:00,
2013-04-03 11:44:00,51.0,50.0,-100.00,North,5,9.0,21.0,96,0.01,,,0.91,102.000000,,2013-04-03 16:44:00,
2013-04-03 11:53:00,51.0,50.0,-100.00,North,5,9.0,21.0,96,0.01,,,0.91,102.000000,,2013-04-03 16:53:00,
2013-04-03 12:03:00,51.0,50.0,-100.00,North,5,9.0,21.0,96,0.01,,,0.91,102.000000,,2013-04-03 17:03:00,
2013-04-03 12:34:00,51.0,50.0,-100.00,NNE,23,12.0,20.0,95,0.00,,,0.91,139.000000,,2013-04-03 17:34:00,
2013-04-03 12:46:00,51.0,50.0,-100.00,NNE,23,12.0,20.0,95,0.00,,,0.91,139.000000,,2013-04-03 17:46:00,
2013-04-03 12:54:00,51.0,50.0,-100.00,NNE,23,12.0,20.0,95,0.00,,,0.91,139.000000,,2013-04-03 17:54:00,
2013-04-03 13:02:00,51.0,50.0,-100.00,NNE,23,12.0,20.0,95,0.00,,,0.91,139.000000,,2013-04-03 18:02:00,
2013-04-03 13:34:00,53.0,50.0,-100.00,NNE,31,7.0,20.0,91,0.00,,,0.91,184.000000,,2013-04-03 18:34:00,
2013-04-03 13:43:00,53.0,50.0,-100.00,NNE,31,7.0,20.0,91,0.00,,,0.91,184.000000,,2013-04-03 18:43:00,
2013-04-03 13:52:00,53.0,50.0,-100.00,NNE,31,7.0,20.0,91,0.00,,,0.91,184.000000,,2013-04-03 18:52:00,
2013-04-03 14:03:00,53.0,50.0,-100.00,NNE,31,7.0,20.0,91,0.00,,,0.91,184.000000,,2013-04-03 19:03:00,
2013-04-03 14:32:00,53.0,49.0,-100.00,North,6,5.0,16.0,86,0.00,,,0.91,175.000000,,2013-04-03 19:32:00,
2013-04-03 14:42:00,53.0,49.0,-100.00,North,6,5.0,16.0,86,0.00,,,0.91,175.000000,,2013-04-03 19:42:00,
2013-04-03 14:52:00,53.0,49.0,-100.00,North,6,5.0,16.0,86,0.00,,,0.91,175.000000,,2013-04-03 19:52:00,
2013-04-03 15:02:00,53.0,49.0,-100.00,North,6,5.0,16.0,86,0.00,,,0.91,175.000000,,2013-04-03 20:02:00,
2013-04-03 15:33:00,52.0,48.0,-100.00,North,358,10.0,17.0,86,0.00,,,0.91,109.000000,,2013-04-03 20:33:00,
2013-04-03 15:42:00,52.0,48.0,-100.00,North,358,10.0,17.0,86,0.00,,,0.91,109.000000,,2013-04-03 20:42:00,
2013-04-03 15:53:00,52.0,48.0,-100.00,North,358,10.0,17.0,86,0.00,,,0.91,109.000000,,2013-04-03 20:53:00,
2013-04-03 16:02:00,52.0,48.0,-100.00,North,358,10.0,17.0,86,0.00,,,0.91,109.000000,,2013-04-03 21:02:00,
2013-04-03 16:33:00,52.0,48.0,-100.00,NNE,24,9.0,16.0,87,0.00,,,-99.99,90.000000,,2013-04-03 21:33:00,
2013-04-03 16:42:00,52.0,48.0,-100.00,NNE,24,9.0,16.0,87,0.00,,,-99.99,90.000000,,2013-04-03 21:42:00,
2013-04-03 16:52:00,52.0,48.0,-100.00,NNE,24,9.0,16.0,87,0.00,,,-99.99,90.000000,,2013-04-03 21:52:00,
2013-04-03 17:02:00,52.0,48.0,-100.00,NNE,24,9.0,16.0,87,0.00,,,-99.99,90.000000,,2013-04-03 22:02:00,
2013-04-03 17:33:00,52.0,49.0,-100.00,North,10,8.0,19.0,88,0.00,,,0.91,71.000000,,2013-04-03 22:33:00,
2013-04-03 17:42:00,52.0,49.0,-100.00,North,10,8.0,19.0,88,0.00,,,0.91,71.000000,,2013-04-03 22:42:00,
2013-04-03 17:52:00,52.0,49.0,-100.00,North,10,8.0,19.0,88,0.00,,,0.91,71.000000,,2013-04-03 22:52:00,
2013-04-03 18:02:00,52.0,49.0,-100.00,North,10,8.0,19.0,88,0.00,,,0.91,71.000000,,2013-04-03 23:02:00,
2013-04-03 18:33:00,51.0,47.0,-100.00,NE,36,9.0,19.0,85,0.00,,,0.91,76.000000,,2013-04-03 23:33:00,
2013-04-03 18:43:00,51.0,47.0,-100.00,NE,36,9.0,19.0,85,0.00,,,0.91,76.000000,,2013-04-03 23:43:00,
2013-04-03 18:54:00,51.0,47.0,-100.00,NE,36,9.0,19.0,85,0.00,,,0.91,76.000000,,2013-04-03 23:54:00,
2013-04-03 19:03:00,51.0,47.0,-100.00,NE,36,9.0,19.0,85,0.00,,,0.91,76.000000,,2013-04-04 00:03:00,
2013-04-03 19:32:00,50.0,47.0,-100.00,NNE,33,7.0,16.0,88,0.00,,,0.91,21.000000,,2013-04-04 00:32:00,
2013-04-03 19:43:00,50.0,47.0,-100.00,NNE,33,7.0,16.0,88,0.00,,,0.91,21.000000,,2013-04-04 00:43:00,
2013-04-03 19:52:00,50.0,47.0,-100.00,NNE,33,7.0,16.0,88,0.00,,,0.91,21.000000,,2013-04-04 00:52:00,
2013-04-03 20:02:00,50.0,47.0,-100.00,NNE,33,7.0,16.0,88,0.00,,,0.91,21.000000,,2013-04-04 01:02:00,
2013-04-03 20:32:00,50.0,47.0,-100.00,NNE,12,8.0,16.0,90,0.00,,,0.91,1.000000,,2013-04-04 01:32:00,
2013-04-03 20:43:00,50.0,47.0,-100.00,NNE,12,8.0,16.0,90,0.00,,,0.91,1.000000,,2013-04-04 01:43:00,
2013-04-03 20:52:00,50.0,47.0,-100.00,NNE,12,8.0,16.0,90,0.00,,,0.91,1.000000,,2013-04-04 01:52:00,
2013-04-03 21:02:00,50.0,47.0,-100.00,NNE,12,8.0,16.0,90,0.00,,,0.91,1.000000,,2013-04-04 02:02:00,
2013-04-03 21:32:00,50.0,47.0,-100.00,NNE,29,4.0,12.0,89,0.00,,,0.91,0.000000,,2013-04-04 02:32:00,
2013-04-03 21:42:00,50.0,47.0,-100.00,NNE,29,4.0,12.0,89,0.00,,,0.91,0.000000,,2013-04-04 02:42:00,
2013-04-03 21:53:00,50.0,47.0,-100.00,NNE,29,4.0,12.0,89,0.00,,,0.91,0.000000,,2013-04-04 02:53:00,
2013-04-03 22:02:00,50.0,47.0,-100.00,NNE,29,4.0,12.0,89,0.00,,,0.91,0.000000,,2013-04-04 03:02:00,
2013-04-03 22:34:00,49.0,48.0,-100.00,NE,49,6.0,15.0,95,0.01,,,0.92,0.000000,,2013-04-04 03:34:00,
2013-04-03 22:45:00,49.0,48.0,-100.00,NE,49,6.0,15.0,95,0.01,,,0.92,0.000000,,2013-04-04 03:45:00,
2013-04-03 22:53:00,49.0,48.0,-100.00,NE,49,6.0,15.0,95,0.01,,,0.92,0.000000,,2013-04-04 03:53:00,
2013-04-03 23:03:00,49.0,48.0,-100.00,NE,49,6.0,15.0,95,0.01,,,0.92,0.000000,,2013-04-04 04:03:00,
2013-04-03 23:34:00,48.0,47.0,-100.00,NE,40,5.0,14.0,96,0.00,,,0.92,0.000000,,2013-04-04 04:34:00,
2013-04-03 23:43:00,48.0,47.0,-100.00,NE,40,5.0,14.0,96,0.00,,,0.92,0.000000,,2013-04-04 04:43:00,
2013-04-03 23:53:00,48.0,47.0,-100.00,NE,40,5.0,14.0,96,0.00,,,0.92,0.000000,,2013-04-04 04:53:00,